Mazatlan Airport, Mexico

9:03 PM MST on March 28, 2017 (GMT -0700)
Gen Rafael Buelna International

Weather History for MMMZ - January, 2013

Change the Weather History Date:

Friday, January 25, 2013

  Actual Average Record
Temperature  
Mean Temperature 68 °F -  
Max Temperature 82 °F 78 °F 91 °F (2006)
Min Temperature 53 °F 51 °F 44 °F (2011)
Cooling Degree Days 2    
Growing Degree Days 18 (Base 50)    
Moisture  
Dew Point 57 °F    
Average Humidity 75    
Maximum Humidity 94    
Minimum Humidity 34    
Precipitation  
Precipitation 0.00 in - - ()
Sea Level Pressure  
Sea Level Pressure 29.94 in    
Wind  
Wind Speed 6 mph ()    
Max Wind Speed 12 mph    
Max Gust Speed -    
Visibility 11.4 miles    
Events      
Averages and records for this station are not official NWS values.
T = Trace of Precipitation, MM = Missing Value Source: Averaged Metar Reports

Daily Weather History Graph

Daily Weather History Graph

Search for Another Location

Airport or City:

Trip Planner

Search our weather history database for the weather conditions in past years. The results will help you decide how hot, cold, wet, or windy it might be!

Date:

Astronomy

Jan. 25, 2013 Rise Set
Actual Time 6:47 AM MST 5:48 PM MST
Civil Twilight 6:23 AM MST 6:11 PM MST
Nautical Twilight 5:56 AM MST 6:39 PM MST
Astronomical Twilight 5:29 AM MST 7:06 PM MST
Moon 4:47 PM MST (1/25) 5:27 AM MST (1/25)
Length of Visible Light 11h 48m
Length of Day
11h 00m
Waxing Gibbous, 98% of the Moon is Illuminated
Jan 25
Waxing Gibbous
Jan 26
Full
Feb 3
Last Quarter
Feb 10
New
Feb 17
First Quarter

Hourly Weather History & Observations

Time (MST) Temp. Heat Index Dew Point Humidity Pressure Visibility Wind Dir Wind Speed Gust Speed Precip Events Conditions
12:43 AM 57.2 °F - 53.6 °F 88% 29.96 in 10.0 mi NNE 6.9 mph - N/A   Clear
1:40 AM 55.4 °F - 51.8 °F 88% 29.95 in 10.0 mi NNE 6.9 mph - N/A   Clear
2:40 AM 55.4 °F - 51.8 °F 88% 29.95 in 10.0 mi Calm Calm - N/A   Clear
3:40 AM 53.6 °F - 51.8 °F 94% 29.95 in 10.0 mi East 6.9 mph - N/A   Clear
4:44 AM 53.6 °F - 51.8 °F 94% 29.95 in 10.0 mi NNE 8.1 mph - N/A   Clear
5:40 AM 53.6 °F - 50.0 °F 88% 29.96 in 10.0 mi North 8.1 mph - N/A   Clear
6:44 AM 53.6 °F - 51.8 °F 94% 29.98 in 10.0 mi North 6.9 mph - N/A   Clear
7:47 AM 57.2 °F - 53.6 °F 88% 29.99 in 10.0 mi NNE 6.9 mph - N/A   Clear
8:41 AM 66.2 °F - 57.2 °F 73% 30.01 in 10.0 mi NNE 6.9 mph - N/A   Partly Cloudy
9:46 AM 71.6 °F - 62.6 °F 73% 30.02 in 12.0 mi ESE 6.9 mph - N/A   Clear
10:40 AM 75.2 °F - 44.6 °F 34% 29.99 in 12.0 mi ESE 5.8 mph - N/A   Partly Cloudy
11:43 AM 80.6 °F 82.3 °F 64.4 °F 58% 29.97 in 15.0 mi South 6.9 mph - N/A   Partly Cloudy
12:40 PM 82.4 °F 84.6 °F 66.2 °F 58% 29.93 in 15.0 mi SSE 9.2 mph - N/A   Partly Cloudy
1:46 PM 82.4 °F 83.9 °F 64.4 °F 54% 29.91 in 15.0 mi South 9.2 mph - N/A   Partly Cloudy
2:41 PM 82.4 °F 83.4 °F 62.6 °F 51% 29.89 in 14.0 mi South 8.1 mph - N/A   Clear
3:40 PM 80.6 °F 82.3 °F 64.4 °F 58% 29.88 in 14.0 mi WSW 11.5 mph - N/A   Clear
4:47 PM 77.0 °F - 64.4 °F 65% 29.89 in 14.0 mi WSW 9.2 mph - N/A   Clear
5:40 PM 73.4 °F - 62.6 °F 69% 29.89 in 13.0 mi WSW 8.1 mph - N/A   Clear
6:46 PM 69.8 °F - 59.0 °F 68% 29.91 in 10.0 mi West 6.9 mph - N/A   Clear
7:41 PM 64.4 °F - 57.2 °F 77% 29.91 in 10.0 mi West 6.9 mph - N/A   Clear
8:41 PM 62.6 °F - 55.4 °F 77% 29.93 in 10.0 mi WSW 6.9 mph - N/A   Clear
9:49 PM 60.8 °F - 55.4 °F 82% 29.94 in 10.0 mi Calm Calm - N/A   Clear
10:48 PM 59.0 °F - 55.4 °F 88% 29.96 in 10.0 mi NE 8.1 mph - N/A   Clear
11:46 PM 57.2 °F - 53.6 °F 88% 29.95 in 10.0 mi Calm Calm - N/A   Clear